N571TB KDRT-KDWH

Flight info

Callsign N571TB
Flight time 1h 26m
Altitude 27000
Route CSI J138 SAT SEEDS FFSSH PIEGY1
Aircraft BE9L/L-SBDFGRY/SB1

Departure

Time 2026-05-03 20:38
Airport Del Rio International Airport (KDRT)

Arrival

Time 2026-05-03 22:05
Airport David Wayne Hooks Memorial Airport (KDWH)
Time Latitude Longitude Altitude Speed Heading
2026-05-03 20:18 29.37071 -100.92090 1000 ft 0 kts 231°
2026-05-03 20:32 29.37055 -100.92110 999 ft 4 kts 207°
2026-05-03 20:32 29.37028 -100.92092 999 ft 4 kts 138°
2026-05-03 20:33 29.37007 -100.92072 999 ft 3 kts 141°
2026-05-03 20:33 29.36988 -100.92053 999 ft 3 kts 142°
2026-05-03 20:33 29.36965 -100.92033 999 ft 3 kts 141°
2026-05-03 20:33 29.36944 -100.92014 998 ft 3 kts 141°
2026-05-03 20:34 29.36920 -100.91991 998 ft 5 kts 140°
2026-05-03 20:34 29.36890 -100.91963 997 ft 6 kts 141°
2026-05-03 20:34 29.36854 -100.91946 997 ft 5 kts 214°
2026-05-03 20:34 29.36834 -100.91994 997 ft 8 kts 241°
2026-05-03 20:35 29.36816 -100.92020 997 ft 1 kts 229°
2026-05-03 20:35 29.36809 -100.92030 996 ft 0 kts 228°
2026-05-03 20:36 29.36800 -100.92041 996 ft 5 kts 227°
2026-05-03 20:37 29.36771 -100.92091 996 ft 9 kts 277°
2026-05-03 20:37 29.36785 -100.92114 996 ft 0 kts 319°
2026-05-03 20:37 29.36824 -100.92152 997 ft 38 kts 320°
2026-05-03 20:38 29.37230 -100.92535 998 ft 107 kts 320°
2026-05-03 20:38 29.37914 -100.93173 1139 ft 132 kts 320°
2026-05-03 20:38 29.38621 -100.93858 1558 ft 137 kts 315°
2026-05-03 20:38 29.39354 -100.94547 2054 ft 140 kts 319°
2026-05-03 20:39 29.40101 -100.95241 2576 ft 140 kts 326°
2026-05-03 20:39 29.41015 -100.95461 3089 ft 136 kts 16°
2026-05-03 20:39 29.41769 -100.94910 3569 ft 127 kts 64°
2026-05-03 20:39 29.41920 -100.93996 4039 ft 119 kts 109°
2026-05-03 20:40 29.41599 -100.93139 4512 ft 119 kts 118°
2026-05-03 20:40 29.41246 -100.92296 4982 ft 120 kts 118°
2026-05-03 20:40 29.40887 -100.91444 5440 ft 121 kts 118°
2026-05-03 20:40 29.40525 -100.90571 5881 ft 123 kts 119°
2026-05-03 20:41 29.40160 -100.89685 6327 ft 125 kts 118°
2026-05-03 20:41 29.39774 -100.88768 6793 ft 131 kts 119°
2026-05-03 20:41 29.39570 -100.87743 7279 ft 137 kts 92°
2026-05-03 20:41 29.39661 -100.86654 7753 ft 141 kts 79°
2026-05-03 20:42 29.39883 -100.85561 8234 ft 143 kts 73°
2026-05-03 20:42 29.40175 -100.84459 8700 ft 146 kts 68°
2026-05-03 20:42 29.40504 -100.83363 9156 ft 148 kts 66°
2026-05-03 20:42 29.40852 -100.82263 9610 ft 150 kts 64°
2026-05-03 20:43 29.41218 -100.81141 10068 ft 150 kts 64°
2026-05-03 20:43 29.41580 -100.80029 10506 ft 152 kts 63°
2026-05-03 20:43 29.41957 -100.78879 10932 ft 154 kts 63°
2026-05-03 20:43 29.42335 -100.77724 11350 ft 156 kts 63°
2026-05-03 20:44 29.42715 -100.76566 11757 ft 158 kts 63°
2026-05-03 20:44 29.43101 -100.75376 12158 ft 160 kts 63°
2026-05-03 20:44 29.43492 -100.74184 12549 ft 162 kts 63°
2026-05-03 20:44 29.43890 -100.72958 12946 ft 164 kts 62°
2026-05-03 20:45 29.44249 -100.71705 13321 ft 169 kts 75°
2026-05-03 20:45 29.44399 -100.70372 13679 ft 172 kts 77°
2026-05-03 20:45 29.44538 -100.68993 14051 ft 175 kts 77°
2026-05-03 20:45 29.44678 -100.67591 14435 ft 178 kts 77°
2026-05-03 20:46 29.44816 -100.66190 14829 ft 178 kts 77°
2026-05-03 20:46 29.44953 -100.64784 15195 ft 179 kts 78°
2026-05-03 20:46 29.45093 -100.63354 15530 ft 183 kts 78°
2026-05-03 20:46 29.45233 -100.61915 15874 ft 184 kts 77°
2026-05-03 20:47 29.45378 -100.60439 16215 ft 186 kts 78°
2026-05-03 20:47 29.45518 -100.58965 16544 ft 188 kts 77°
2026-05-03 20:47 29.45660 -100.57471 16862 ft 190 kts 77°
2026-05-03 20:47 29.45809 -100.55949 17189 ft 194 kts 77°
2026-05-03 20:48 29.45957 -100.54421 17583 ft 194 kts 77°
2026-05-03 20:48 29.46105 -100.52895 17963 ft 196 kts 77°
2026-05-03 20:48 29.46257 -100.51335 18343 ft 197 kts 77°
2026-05-03 20:48 29.46408 -100.49770 18698 ft 200 kts 76°
2026-05-03 20:49 29.46562 -100.48172 19027 ft 204 kts 78°
2026-05-03 20:49 29.46715 -100.46567 19373 ft 205 kts 77°
2026-05-03 20:49 29.46874 -100.44914 19713 ft 207 kts 78°
2026-05-03 20:49 29.47029 -100.43286 20068 ft 208 kts 78°
2026-05-03 20:50 29.47185 -100.41636 20399 ft 210 kts 78°
2026-05-03 20:50 29.47348 -100.39965 20713 ft 212 kts 78°
2026-05-03 20:50 29.47505 -100.38284 21022 ft 215 kts 78°
2026-05-03 20:50 29.47671 -100.36574 21328 ft 216 kts 78°
2026-05-03 20:51 29.47833 -100.34866 21658 ft 217 kts 79°
2026-05-03 20:51 29.47998 -100.33131 21947 ft 218 kts 78°
2026-05-03 20:51 29.48160 -100.31377 22201 ft 222 kts 79°
2026-05-03 20:51 29.48329 -100.29632 22491 ft 222 kts 78°
2026-05-03 20:52 29.48502 -100.27853 22744 ft 225 kts 79°
2026-05-03 20:52 29.48672 -100.26049 23015 ft 226 kts 78°
2026-05-03 20:52 29.48836 -100.24260 23277 ft 228 kts 79°
2026-05-03 20:52 29.49002 -100.22440 23538 ft 229 kts 78°
2026-05-03 20:53 29.49173 -100.20632 23772 ft 231 kts 78°
2026-05-03 20:53 29.49353 -100.18791 24021 ft 232 kts 78°
2026-05-03 20:53 29.49518 -100.16954 24252 ft 234 kts 77°
2026-05-03 20:53 29.49691 -100.15103 24499 ft 235 kts 77°
2026-05-03 20:54 29.49871 -100.13239 24727 ft 237 kts 77°
2026-05-03 20:54 29.50220 -100.09430 25175 ft 241 kts 77°
2026-05-03 20:54 29.50402 -100.07519 25384 ft 242 kts 77°
2026-05-03 20:55 29.50577 -100.05596 25624 ft 243 kts 76°
2026-05-03 20:55 29.50757 -100.03662 25848 ft 244 kts 76°
2026-05-03 20:55 29.50936 -100.01743 26068 ft 245 kts 76°
2026-05-03 20:55 29.51123 -99.99760 26128 ft 256 kts 75°
2026-05-03 20:56 29.51321 -99.97678 26137 ft 269 kts 76°
2026-05-03 20:56 29.51525 -99.95483 26132 ft 280 kts 77°
2026-05-03 20:56 29.51732 -99.93235 26136 ft 290 kts 77°
2026-05-03 20:56 29.51947 -99.90902 26127 ft 298 kts 78°
2026-05-03 20:57 29.52157 -99.88512 26135 ft 304 kts 78°
2026-05-03 20:57 29.52379 -99.86077 26131 ft 309 kts 78°
2026-05-03 20:57 29.52604 -99.83604 26124 ft 313 kts 78°
2026-05-03 20:57 29.52827 -99.81119 26126 ft 316 kts 77°
2026-05-03 20:58 29.53060 -99.78594 26122 ft 318 kts 78°
2026-05-03 20:58 29.53288 -99.76070 26127 ft 321 kts 78°
2026-05-03 20:58 29.53518 -99.73510 26132 ft 322 kts 78°
2026-05-03 20:58 29.53747 -99.70961 26127 ft 324 kts 78°
2026-05-03 20:59 29.53980 -99.68377 26123 ft 324 kts 78°
2026-05-03 20:59 29.54210 -99.65806 26132 ft 325 kts 78°
2026-05-03 20:59 29.54442 -99.63216 26125 ft 326 kts 78°
2026-05-03 20:59 29.54675 -99.60633 26125 ft 326 kts 78°
2026-05-03 21:00 29.54899 -99.58051 26124 ft 326 kts 77°
2026-05-03 21:00 29.55053 -99.56333 26126 ft 326 kts 78°
2026-05-03 21:00 29.55363 -99.52889 26133 ft 326 kts 78°
2026-05-03 21:00 29.55595 -99.50279 26135 ft 326 kts 77°
2026-05-03 21:01 29.55823 -99.47697 26148 ft 326 kts 77°
2026-05-03 21:01 29.56053 -99.45101 26160 ft 326 kts 77°
2026-05-03 21:01 29.56282 -99.42509 26184 ft 327 kts 77°
2026-05-03 21:01 29.56505 -99.39919 26196 ft 326 kts 78°
2026-05-03 21:02 29.56736 -99.37342 26205 ft 327 kts 77°
2026-05-03 21:02 29.56959 -99.34742 26237 ft 326 kts 77°
2026-05-03 21:02 29.57190 -99.32124 26165 ft 328 kts 78°
2026-05-03 21:02 29.57420 -99.29481 26115 ft 329 kts 78°
2026-05-03 21:03 29.57647 -99.26862 26119 ft 328 kts 78°
2026-05-03 21:03 29.57873 -99.24264 26119 ft 328 kts 78°
2026-05-03 21:03 29.58100 -99.21650 26125 ft 328 kts 78°
2026-05-03 21:03 29.58319 -99.19048 26129 ft 327 kts 78°
2026-05-03 21:04 29.58547 -99.16452 26125 ft 327 kts 78°
2026-05-03 21:04 29.58770 -99.13863 26125 ft 327 kts 78°
2026-05-03 21:04 29.58988 -99.11264 26123 ft 326 kts 78°
2026-05-03 21:04 29.59216 -99.08668 26120 ft 327 kts 78°
2026-05-03 21:05 29.59433 -99.06093 26130 ft 326 kts 78°
2026-05-03 21:05 29.59650 -99.03500 26127 ft 326 kts 78°
2026-05-03 21:05 29.59875 -99.00920 26123 ft 326 kts 78°
2026-05-03 21:05 29.60092 -98.98326 26125 ft 326 kts 78°
2026-05-03 21:06 29.60311 -98.95737 26128 ft 326 kts 78°
2026-05-03 21:06 29.60531 -98.93149 26124 ft 326 kts 78°
2026-05-03 21:06 29.60745 -98.90585 26124 ft 325 kts 78°
2026-05-03 21:06 29.60957 -98.88010 26130 ft 325 kts 78°
2026-05-03 21:07 29.61178 -98.85405 26131 ft 325 kts 78°
2026-05-03 21:07 29.61394 -98.82816 26128 ft 325 kts 77°
2026-05-03 21:07 29.61613 -98.80233 26134 ft 324 kts 78°
2026-05-03 21:07 29.61824 -98.77666 26146 ft 325 kts 78°
2026-05-03 21:08 29.62042 -98.75082 26144 ft 325 kts 78°
2026-05-03 21:08 29.62248 -98.72516 26139 ft 325 kts 78°
2026-05-03 21:08 29.62466 -98.69934 26152 ft 325 kts 78°
2026-05-03 21:08 29.62674 -98.67342 26142 ft 325 kts 78°
2026-05-03 21:09 29.62888 -98.64771 26151 ft 325 kts 78°
2026-05-03 21:09 29.63100 -98.62196 26156 ft 326 kts 78°
2026-05-03 21:09 29.63310 -98.59614 26145 ft 326 kts 78°
2026-05-03 21:09 29.63524 -98.56990 26151 ft 326 kts 78°
2026-05-03 21:10 29.63736 -98.54400 26156 ft 326 kts 78°
2026-05-03 21:10 29.63944 -98.51806 26164 ft 327 kts 78°
2026-05-03 21:10 29.64151 -98.49220 26159 ft 327 kts 78°
2026-05-03 21:10 29.64362 -98.46641 26162 ft 327 kts 79°
2026-05-03 21:11 29.64444 -98.43999 26156 ft 329 kts 83°
2026-05-03 21:11 29.64485 -98.41396 26154 ft 329 kts 83°
2026-05-03 21:11 29.64529 -98.38759 26164 ft 329 kts 83°
2026-05-03 21:11 29.64570 -98.36128 26161 ft 330 kts 83°
2026-05-03 21:12 29.64611 -98.33469 26144 ft 330 kts 83°
2026-05-03 21:12 29.64649 -98.30860 26147 ft 329 kts 83°
2026-05-03 21:12 29.64692 -98.28194 26145 ft 328 kts 83°
2026-05-03 21:12 29.64729 -98.25577 26149 ft 328 kts 83°
2026-05-03 21:13 29.64777 -98.22937 26145 ft 327 kts 83°
2026-05-03 21:13 29.64813 -98.20323 26141 ft 327 kts 83°
2026-05-03 21:13 29.64847 -98.17735 26146 ft 327 kts 83°
2026-05-03 21:13 29.64889 -98.15112 26140 ft 327 kts 84°
2026-05-03 21:14 29.64926 -98.12493 26138 ft 327 kts 84°
2026-05-03 21:14 29.64963 -98.09867 26139 ft 327 kts 83°
2026-05-03 21:14 29.64998 -98.07271 26135 ft 327 kts 83°
2026-05-03 21:14 29.65035 -98.04672 26140 ft 327 kts 83°
2026-05-03 21:15 29.65068 -98.02048 26137 ft 327 kts 83°
2026-05-03 21:15 29.65105 -97.99422 26136 ft 327 kts 84°
2026-05-03 21:15 29.65141 -97.96810 26139 ft 327 kts 83°
2026-05-03 21:15 29.65173 -97.94211 26141 ft 327 kts 84°
2026-05-03 21:16 29.65211 -97.91620 26133 ft 327 kts 84°
2026-05-03 21:16 29.65244 -97.88963 25859 ft 331 kts 84°
2026-05-03 21:16 29.65272 -97.86375 25664 ft 323 kts 83°
2026-05-03 21:16 29.65304 -97.83812 25462 ft 316 kts 84°
2026-05-03 21:17 29.65334 -97.81300 25259 ft 311 kts 84°
2026-05-03 21:17 29.65350 -97.79659 25129 ft 308 kts 83°
2026-05-03 21:17 29.65393 -97.76415 24864 ft 303 kts 84°
2026-05-03 21:17 29.65420 -97.74020 24670 ft 300 kts 84°
2026-05-03 21:18 29.65448 -97.71622 24470 ft 296 kts 84°
2026-05-03 21:18 29.65477 -97.69284 24278 ft 294 kts 84°
2026-05-03 21:18 29.65498 -97.66930 24074 ft 292 kts 84°
2026-05-03 21:18 29.65524 -97.64637 23880 ft 290 kts 84°
2026-05-03 21:19 29.65552 -97.62322 23697 ft 288 kts 85°
2026-05-03 21:19 29.65574 -97.60030 23501 ft 286 kts 85°
2026-05-03 21:19 29.65599 -97.57739 23301 ft 285 kts 84°
2026-05-03 21:19 29.65622 -97.55466 23109 ft 284 kts 85°
2026-05-03 21:20 29.65639 -97.53207 22921 ft 282 kts 84°
2026-05-03 21:20 29.65662 -97.50977 22728 ft 281 kts 84°
2026-05-03 21:20 29.65683 -97.48749 22533 ft 280 kts 85°
2026-05-03 21:20 29.65710 -97.46490 22339 ft 280 kts 85°
2026-05-03 21:21 29.65725 -97.44257 22152 ft 281 kts 85°
2026-05-03 21:21 29.65745 -97.42016 21965 ft 282 kts 85°
2026-05-03 21:21 29.65764 -97.39774 21782 ft 282 kts 85°
2026-05-03 21:21 29.65786 -97.37525 21594 ft 282 kts 85°
2026-05-03 21:22 29.65804 -97.35267 21401 ft 281 kts 85°
2026-05-03 21:22 29.65826 -97.33009 21200 ft 281 kts 85°
2026-05-03 21:22 29.65844 -97.30775 20997 ft 281 kts 86°
2026-05-03 21:22 29.65857 -97.28514 20799 ft 281 kts 85°
2026-05-03 21:23 29.65877 -97.26260 20595 ft 280 kts 85°
2026-05-03 21:23 29.65976 -97.24043 20309 ft 276 kts 74°
2026-05-03 21:23 29.66089 -97.21838 20003 ft 280 kts 90°
2026-05-03 21:23 29.66005 -97.19617 19714 ft 278 kts 87°
2026-05-03 21:24 29.65976 -97.17403 19414 ft 278 kts 86°
2026-05-03 21:24 29.65972 -97.15197 19129 ft 276 kts 86°
2026-05-03 21:24 29.65976 -97.12987 18822 ft 275 kts 86°
2026-05-03 21:24 29.65986 -97.10816 18523 ft 273 kts 86°
2026-05-03 21:25 29.65994 -97.08635 18221 ft 272 kts 86°
2026-05-03 21:25 29.66010 -97.06467 17928 ft 271 kts 85°
2026-05-03 21:25 29.66019 -97.04330 17635 ft 269 kts 85°
2026-05-03 21:25 29.66035 -97.02168 17357 ft 268 kts 85°
2026-05-03 21:26 29.66045 -97.00056 17075 ft 266 kts 85°
2026-05-03 21:26 29.66055 -96.97942 16798 ft 264 kts 86°
2026-05-03 21:26 29.66069 -96.95832 16510 ft 262 kts 86°
2026-05-03 21:26 29.66078 -96.93732 16210 ft 261 kts 86°
2026-05-03 21:27 29.66089 -96.91653 15839 ft 264 kts 86°
2026-05-03 21:27 29.66099 -96.89551 15468 ft 263 kts 87°
2026-05-03 21:27 29.66110 -96.87456 15083 ft 259 kts 87°
2026-05-03 21:27 29.66117 -96.85422 14704 ft 255 kts 86°
2026-05-03 21:28 29.66128 -96.83396 14320 ft 252 kts 87°
2026-05-03 21:28 29.66135 -96.81407 13937 ft 247 kts 87°
2026-05-03 21:28 29.66141 -96.79459 13546 ft 241 kts 87°
2026-05-03 21:28 29.66149 -96.77567 13156 ft 236 kts 87°
2026-05-03 21:29 29.66157 -96.75713 12767 ft 231 kts 88°
2026-05-03 21:29 29.66164 -96.73870 12367 ft 228 kts 88°
2026-05-03 21:29 29.66169 -96.72060 11980 ft 226 kts 88°
2026-05-03 21:29 29.66174 -96.70280 11595 ft 224 kts 87°
2026-05-03 21:30 29.66180 -96.68509 11209 ft 222 kts 87°
2026-05-03 21:30 29.66186 -96.66733 10819 ft 221 kts 87°
2026-05-03 21:30 29.66191 -96.64969 10428 ft 219 kts 87°
2026-05-03 21:30 29.66196 -96.63239 10045 ft 218 kts 87°
2026-05-03 21:31 29.66200 -96.61513 9660 ft 217 kts 87°
2026-05-03 21:31 29.66204 -96.59780 9275 ft 215 kts 87°
2026-05-03 21:31 29.66212 -96.58073 8895 ft 214 kts 88°
2026-05-03 21:31 29.66219 -96.56377 8510 ft 211 kts 88°
2026-05-03 21:32 29.66222 -96.54701 8122 ft 209 kts 89°
2026-05-03 21:32 29.66228 -96.53042 7738 ft 207 kts 89°
2026-05-03 21:32 29.66248 -96.51429 7475 ft 198 kts 83°
2026-05-03 21:32 29.66857 -96.50091 7258 ft 188 kts 39°
2026-05-03 21:33 29.67932 -96.49313 7074 ft 180 kts 32°
2026-05-03 21:33 29.68973 -96.48559 6873 ft 174 kts 32°
2026-05-03 21:33 29.69988 -96.47837 6671 ft 170 kts 33°
2026-05-03 21:33 29.70993 -96.47125 6470 ft 166 kts 33°
2026-05-03 21:34 29.71967 -96.46433 6272 ft 163 kts 33°
2026-05-03 21:34 29.72923 -96.45755 6076 ft 161 kts 34°
2026-05-03 21:34 29.73879 -96.45078 5874 ft 158 kts 34°
2026-05-03 21:34 29.74802 -96.44418 5676 ft 157 kts 33°
2026-05-03 21:35 29.75728 -96.43760 5477 ft 155 kts 34°
2026-05-03 21:35 29.76651 -96.43103 5279 ft 154 kts 34°
2026-05-03 21:35 29.77566 -96.42454 5083 ft 153 kts 34°
2026-05-03 21:35 29.78467 -96.41814 4888 ft 153 kts 34°
2026-05-03 21:36 29.79376 -96.41171 4693 ft 152 kts 34°
2026-05-03 21:36 29.80279 -96.40527 4498 ft 151 kts 34°
2026-05-03 21:36 29.81175 -96.39890 4304 ft 151 kts 34°
2026-05-03 21:36 29.82070 -96.39256 4112 ft 150 kts 34°
2026-05-03 21:37 29.82954 -96.38631 3919 ft 149 kts 35°
2026-05-03 21:37 29.83837 -96.38003 3725 ft 149 kts 35°
2026-05-03 21:37 29.84724 -96.37369 3529 ft 148 kts 34°
2026-05-03 21:37 29.85600 -96.36746 3335 ft 148 kts 34°
2026-05-03 21:38 29.86479 -96.36121 3141 ft 148 kts 34°
2026-05-03 21:38 29.87360 -96.35497 2946 ft 147 kts 34°
2026-05-03 21:38 29.88232 -96.34876 2753 ft 147 kts 35°
2026-05-03 21:38 29.89106 -96.34251 2560 ft 147 kts 35°
2026-05-03 21:39 29.89976 -96.33633 2368 ft 146 kts 34°
2026-05-03 21:39 29.90843 -96.33018 2174 ft 145 kts 34°
2026-05-03 21:39 29.91701 -96.32405 1986 ft 144 kts 34°
2026-05-03 21:39 29.92523 -96.31819 1936 ft 134 kts 34°
2026-05-03 21:40 29.93286 -96.31281 1924 ft 121 kts 34°
2026-05-03 21:40 29.93973 -96.30796 1919 ft 112 kts 34°
2026-05-03 21:40 29.94674 -96.30293 1973 ft 124 kts 35°
2026-05-03 21:40 29.95450 -96.29739 1978 ft 137 kts 34°
2026-05-03 21:41 29.96292 -96.29133 1972 ft 149 kts 35°
2026-05-03 21:41 29.97207 -96.28479 1962 ft 158 kts 34°
2026-05-03 21:41 29.98160 -96.27800 1958 ft 164 kts 35°
2026-05-03 21:41 29.99145 -96.27093 1955 ft 168 kts 34°
2026-05-03 21:42 30.00150 -96.26375 1953 ft 171 kts 34°
2026-05-03 21:42 30.01177 -96.25643 1951 ft 173 kts 34°
2026-05-03 21:42 30.02212 -96.24906 1949 ft 175 kts 34°
2026-05-03 21:42 30.03250 -96.24166 1950 ft 176 kts 34°
2026-05-03 21:43 30.04292 -96.23425 1946 ft 174 kts 34°
2026-05-03 21:43 30.05314 -96.22694 1944 ft 171 kts 34°
2026-05-03 21:43 30.06322 -96.21973 1946 ft 169 kts 34°
2026-05-03 21:43 30.07321 -96.21259 1946 ft 168 kts 33°
2026-05-03 21:44 30.08316 -96.20551 1945 ft 166 kts 34°
2026-05-03 21:44 30.09280 -96.19865 1945 ft 163 kts 34°
2026-05-03 21:44 30.10257 -96.19167 1943 ft 162 kts 34°
2026-05-03 21:44 30.11212 -96.18485 1944 ft 161 kts 34°
2026-05-03 21:45 30.12174 -96.17797 1945 ft 160 kts 34°
2026-05-03 21:45 30.13118 -96.17125 1945 ft 159 kts 34°
2026-05-03 21:45 30.14061 -96.16452 1946 ft 158 kts 34°
2026-05-03 21:45 30.15005 -96.15773 1946 ft 157 kts 34°
2026-05-03 21:46 30.15939 -96.15106 1945 ft 157 kts 34°
2026-05-03 21:46 30.16867 -96.14441 1947 ft 156 kts 34°
2026-05-03 21:46 30.17787 -96.13785 1949 ft 156 kts 34°
2026-05-03 21:46 30.18721 -96.13113 1952 ft 158 kts 33°
2026-05-03 21:47 30.19656 -96.12445 1950 ft 160 kts 34°
2026-05-03 21:47 30.20609 -96.11764 1949 ft 161 kts 34°
2026-05-03 21:47 30.21533 -96.11025 1944 ft 160 kts 49°
2026-05-03 21:47 30.21990 -96.09893 1956 ft 156 kts 77°
2026-05-03 21:48 30.22295 -96.08675 1947 ft 158 kts 77°
2026-05-03 21:48 30.22564 -96.07436 1944 ft 158 kts 79°
2026-05-03 21:48 30.22788 -96.06194 1943 ft 158 kts 81°
2026-05-03 21:48 30.22983 -96.04939 1945 ft 158 kts 82°
2026-05-03 21:49 30.23157 -96.03696 1950 ft 158 kts 82°
2026-05-03 21:49 30.23325 -96.02425 1950 ft 158 kts 83°
2026-05-03 21:49 30.23494 -96.01173 1945 ft 158 kts 83°
2026-05-03 21:49 30.23657 -95.99916 1939 ft 159 kts 83°
2026-05-03 21:50 30.23821 -95.98649 1937 ft 159 kts 83°
2026-05-03 21:50 30.23983 -95.97372 1934 ft 160 kts 83°
2026-05-03 21:50 30.24151 -95.96096 1933 ft 160 kts 83°
2026-05-03 21:50 30.24313 -95.94829 1932 ft 159 kts 83°
2026-05-03 21:51 30.24476 -95.93563 1933 ft 159 kts 83°
2026-05-03 21:51 30.24641 -95.92287 1935 ft 159 kts 83°
2026-05-03 21:51 30.24803 -95.91029 1935 ft 159 kts 83°
2026-05-03 21:51 30.24966 -95.89754 1934 ft 159 kts 84°
2026-05-03 21:52 30.25129 -95.88490 1937 ft 159 kts 84°
2026-05-03 21:52 30.25138 -95.87227 1931 ft 157 kts 108°
2026-05-03 21:52 30.24997 -95.85997 1931 ft 158 kts 78°
2026-05-03 21:52 30.25343 -95.84779 1943 ft 157 kts 78°
2026-05-03 21:53 30.25567 -95.83542 1940 ft 158 kts 80°
2026-05-03 21:53 30.25764 -95.82295 1941 ft 158 kts 82°
2026-05-03 21:53 30.25943 -95.81049 1940 ft 158 kts 82°
2026-05-03 21:53 30.26119 -95.79780 1941 ft 158 kts 83°
2026-05-03 21:54 30.26288 -95.78522 1944 ft 159 kts 82°
2026-05-03 21:54 30.26458 -95.77274 1944 ft 159 kts 83°
2026-05-03 21:54 30.26626 -95.76004 1941 ft 159 kts 82°
2026-05-03 21:54 30.26793 -95.74737 1943 ft 159 kts 83°
2026-05-03 21:55 30.26963 -95.73473 1947 ft 159 kts 83°
2026-05-03 21:55 30.27129 -95.72217 1943 ft 158 kts 83°
2026-05-03 21:55 30.27295 -95.70957 1947 ft 158 kts 83°
2026-05-03 21:55 30.27466 -95.69687 1948 ft 158 kts 83°
2026-05-03 21:56 30.27631 -95.68426 1951 ft 159 kts 84°
2026-05-03 21:56 30.27798 -95.67166 1950 ft 159 kts 83°
2026-05-03 21:56 30.27965 -95.65900 1948 ft 159 kts 83°
2026-05-03 21:56 30.28135 -95.64628 1946 ft 160 kts 83°
2026-05-03 21:57 30.28299 -95.63361 1947 ft 159 kts 83°
2026-05-03 21:57 30.28469 -95.62099 1950 ft 159 kts 83°
2026-05-03 21:57 30.28633 -95.60841 1954 ft 159 kts 83°
2026-05-03 21:57 30.28639 -95.59571 1946 ft 156 kts 110°
2026-05-03 21:58 30.27948 -95.58673 1950 ft 148 kts 155°
2026-05-03 21:58 30.26975 -95.58442 1951 ft 139 kts 169°
2026-05-03 21:58 30.26029 -95.58251 1888 ft 136 kts 170°
2026-05-03 21:58 30.25101 -95.58092 1825 ft 129 kts 170°
2026-05-03 21:59 30.24270 -95.57959 1736 ft 110 kts 170°
2026-05-03 21:59 30.23543 -95.57848 1743 ft 103 kts 170°
2026-05-03 21:59 30.22817 -95.57738 1775 ft 109 kts 171°
2026-05-03 21:59 30.22042 -95.57622 1759 ft 112 kts 171°
2026-05-03 22:00 30.21250 -95.57506 1722 ft 117 kts 172°
2026-05-03 22:00 30.20438 -95.57390 1739 ft 115 kts 172°
2026-05-03 22:00 30.19632 -95.57270 1739 ft 116 kts 172°
2026-05-03 22:00 30.18827 -95.57155 1740 ft 117 kts 172°
2026-05-03 22:01 30.18016 -95.57036 1741 ft 117 kts 171°
2026-05-03 22:01 30.17202 -95.56918 1745 ft 117 kts 171°
2026-05-03 22:01 30.16383 -95.56798 1744 ft 118 kts 171°
2026-05-03 22:01 30.15568 -95.56679 1744 ft 118 kts 171°
2026-05-03 22:02 30.14743 -95.56560 1729 ft 119 kts 171°
2026-05-03 22:02 30.13926 -95.56441 1645 ft 115 kts 171°
2026-05-03 22:02 30.13141 -95.56328 1489 ft 111 kts 171°
2026-05-03 22:02 30.12382 -95.56216 1330 ft 108 kts 171°
2026-05-03 22:03 30.11641 -95.56107 1184 ft 107 kts 171°
2026-05-03 22:03 30.10900 -95.56008 1025 ft 107 kts 173°
2026-05-03 22:03 30.10158 -95.55911 857 ft 108 kts 171°
2026-05-03 22:03 30.09410 -95.55791 694 ft 108 kts 170°
2026-05-03 22:04 30.08653 -95.55672 537 ft 108 kts 171°
2026-05-03 22:04 30.07907 -95.55570 339 ft 107 kts 169°
2026-05-03 22:04 30.07183 -95.55460 170 ft 101 kts 171°
2026-05-03 22:04 30.06550 -95.55374 152 ft 86 kts 168°
2026-05-03 22:05 30.06085 -95.55299 150 ft 48 kts 173°
2026-05-03 22:05 30.05981 -95.55278 150 ft 0 kts 141°
2026-05-03 22:05 30.05971 -95.55241 149 ft 3 kts 80°
2026-05-03 22:05 30.05971 -95.55238 149 ft 0 kts 81°
2026-05-03 22:06 30.05973 -95.55230 149 ft 3 kts 81°
2026-05-03 22:06 30.05978 -95.55194 149 ft 5 kts 75°
2026-05-03 22:06 30.06014 -95.55187 149 ft 7 kts 351°
2026-05-03 22:07 30.06068 -95.55196 150 ft 8 kts 353°
2026-05-03 22:07 30.06129 -95.55203 150 ft 9 kts 354°
2026-05-03 22:07 30.06192 -95.55205 150 ft 9 kts
2026-05-03 22:07 30.06252 -95.55204 150 ft 8 kts
2026-05-03 22:08 30.06313 -95.55203 150 ft 9 kts 360°
2026-05-03 22:08 30.06377 -95.55203 151 ft 9 kts 358°
2026-05-03 22:08 30.06440 -95.55204 151 ft 9 kts 359°
2026-05-03 22:08 30.06494 -95.55173 151 ft 8 kts 41°
2026-05-03 22:09 30.06547 -95.55160 151 ft 8 kts 358°
2026-05-03 22:09 30.06609 -95.55160 151 ft 9 kts 360°
2026-05-03 22:09 30.06673 -95.55160 151 ft 9 kts 358°
2026-05-03 22:10 30.06774 -95.55120 151 ft 6 kts 87°
2026-05-03 22:10 30.06775 -95.55107 151 ft 0 kts 87°